CW8014 Weather Reports


time (UTC)temp
C
wind
direction
speed
KPH
gust
KPH
rain 1hr
cm
rain 24hr
cm
rain mn
cm
humidity
%
barometer
mb
20260507161409 16 164 8.0 16.1 0.00 0.00 0.00 57 1015.9
20260507160409 16 102 8.0 16.1 0.00 0.00 0.00 57 1016.0
20260507155409 16 115 6.4 14.5 0.00 0.00 0.00 56 1016.0
20260507153409 16 142 9.7 25.7 0.00 0.00 0.00 58 1015.9
20260507152409 16 113 8.0 14.5 0.00 0.00 0.00 57 1015.9
20260507151409 16 142 6.4 14.5 0.00 0.00 0.00 60 1015.9
20260507150409 15 103 8.0 16.1 0.00 0.00 0.00 61 1015.9
20260507145410 15 131 4.8 14.5 0.00 0.00 0.00 59 1015.9
20260507144410 16 81 8.0 16.1 0.00 0.00 0.00 58 1015.8
20260507142504 16 52 4.8 16.1 0.00 0.00 0.00 57 1015.7
20260507141401 17 103 6.4 17.7 0.00 0.00 0.00 52 1015.8
20260507140401 17 19 6.4 14.5 0.00 0.00 0.00 54 1015.8
20260507135401 17 130 9.7 20.9 0.00 0.00 0.00 54 1015.9
20260507134404 16 106 8.0 14.5 0.00 0.00 0.00 53 1015.9
20260507132401 17 88 8.0 16.1 0.00 0.00 0.00 53 1015.8
20260507131401 16 68 9.7 17.7 0.00 0.00 0.00 52 1015.8
20260507125401 16 40 4.8 16.1 0.00 0.00 0.00 58 1015.8
20260507124401 16 107 8.0 17.7 0.00 0.00 0.00 55 1015.7
20260507123404 16 9 6.4 19.3 0.00 0.00 0.00 58 1015.7
20260507122401 16 105 6.4 14.5 0.00 0.00 0.00 57 1015.5
20260507121402 16 109 6.4 17.7 0.00 0.00 0.00 61 1015.5
20260507120401 16 79 6.4 16.1 0.00 0.00 0.00 58 1015.5
20260507115402 16 65 6.4 19.3 0.00 0.00 0.00 59 1015.5
20260507114402 15 86 4.8 12.9 0.00 0.00 0.00 60 1015.5
20260507111402 15 132 9.7 17.7 0.00 0.00 0.00 62 1015.5
20260507110405 13 70 3.2 9.7 0.00 0.00 0.00 64 1015.5
20260507105402 14 350 8.0 16.1 0.00 0.00 0.00 64 1015.5
20260507104402 14 13 3.2 8.0 0.00 0.00 0.00 65 1015.4
20260507103402 14 15 6.4 11.3 0.00 0.00 0.00 66 1015.4
20260507102402 14 36 6.4 12.9 0.00 0.00 0.00 68 1015.3
20260507101402 14 10 4.8 11.3 0.00 0.00 0.00 74 1015.4
20260507095405 13 35 9.7 20.9 0.00 0.00 0.00 73 1015.2
20260507094405 13 91 4.8 11.3 0.00 0.00 0.00 74 1015.2
20260507093403 13 16 3.2 12.9 0.00 0.00 0.00 75 1015.3
20260507092402 12 13 6.4 12.9 0.00 0.00 0.00 79 1015.3
20260507091402 12 321 6.4 14.5 0.00 0.00 0.00 80 1015.2
20260507090403 12 5 8.0 14.5 0.00 0.00 0.00 80 1015.1
20260507085403 11 355 6.4 9.7 0.00 0.00 0.00 81 1015.1
20260507084403 11 63 6.4 12.9 0.00 0.00 0.00 80 1015.1
20260507083404 11 346 6.4 12.9 0.00 0.00 0.00 82 1015.0
20260507081403 11 355 6.4 14.5 0.00 0.00 0.00 85 1014.9
20260507080403 10 360 8.0 14.5 0.00 0.00 0.00 85 1014.9
20260507075403 10 5 6.4 12.9 0.00 0.00 0.00 86 1014.8
20260507074403 10 360 8.0 14.5 0.00 0.00 0.00 85 1014.8
20260507073403 10 360 4.8 9.7 0.00 0.00 0.00 88 1014.6
20260507072403 10 351 3.2 8.0 0.00 0.00 0.00 89 1014.6
20260507071406 9 351 6.4 16.1 0.00 0.00 0.00 89 1014.6
20260507070406 9 327 4.8 11.3 0.00 0.00 0.00 92 1014.5
20260507064403 8 333 3.2 8.0 0.00 0.00 0.00 95 1014.4
20260507063404 8 5 3.2 8.0 0.00 0.00 0.00 96 1014.5
20260507062404 7 5 4.8 8.0 0.00 0.00 0.00 96 1014.4
20260507061404 7 5 3.2 8.0 0.00 0.00 0.00 96 1014.2
20260507060407 7 9 4.8 8.0 0.00 0.00 0.00 96 1014.2
20260507055404 6 336 4.8 6.4 0.00 0.00 0.00 96 1014.1
20260507054404 6 327 4.8 6.4 0.00 0.00 0.00 96 1014.0
20260507053404 6 360 3.2 6.4 0.00 0.00 0.00 96 1013.9
20260507051404 5 340 3.2 4.8 0.00 0.00 0.00 95 1013.7
20260507050404 4 339 1.6 3.2 0.00 0.00 0.00 96 1013.5
20260507044404 3 313 3.2 4.8 0.00 0.00 0.00 95 1013.4
20260507043404 3 5 1.6 3.2 0.00 0.00 0.00 95 1013.3
20260507042404 2 5 0.0 1.6 0.00 0.00 0.00 95 1013.2
20260507041404 2 5 0.0 0.0 0.00 0.00 0.00 95 1013.1
20260507040404 2 5 0.0 0.0 0.00 0.00 0.00 94 1013.0
20260507035405 2 5 0.0 0.0 0.00 0.00 0.00 94 1013.0
20260507034405 2 5 0.0 1.6 0.00 0.00 0.00 94 1012.9
20260507032405 3 5 0.0 1.6 0.00 0.00 0.00 94 1012.8
20260507031405 3 5 0.0 1.6 0.00 0.00 0.00 94 1012.7
20260507030408 3 5 0.0 1.6 0.00 0.00 0.00 94 1012.6
20260507025406 3 5 0.0 0.0 0.00 0.00 0.00 94 1012.5
20260507024405 3 5 3.2 3.2 0.00 0.00 0.00 94 1012.6
20260507023405 3 5 1.6 3.2 0.00 0.00 0.00 94 1012.5
20260507022405 3 5 1.6 1.6 0.00 0.00 0.00 94 1012.5
20260507021405 3 5 0.0 1.6 0.00 0.00 0.00 94 1012.4
20260507020405 3 5 0.0 0.0 0.00 0.00 0.00 94 1012.3
20260507014405 4 5 1.6 3.2 0.00 0.00 0.00 94 1012.2
20260507013406 4 5 3.2 3.2 0.00 0.00 0.00 93 1012.1
20260507012406 4 5 1.6 4.8 0.00 0.00 0.00 93 1012.0
20260507011406 4 5 3.2 4.8 0.00 0.00 0.00 93 1012.0
20260507004406 5 355 1.6 3.2 0.00 0.00 0.00 93 1011.9
20260507003406 5 344 3.2 6.4 0.00 0.00 0.00 93 1011.8
20260507002406 5 343 3.2 6.4 0.00 0.00 0.00 93 1011.7
20260507001406 5 345 3.2 6.4 0.00 0.00 0.00 93 1011.7
20260506235407 5 335 3.2 6.4 0.00 0.00 0.00 93 1011.7
20260506234406 5 336 4.8 6.4 0.00 0.00 0.00 93 1011.8
20260506232406 5 355 3.2 4.8 0.00 0.00 0.00 93 1011.8
20260506231409 5 348 3.2 4.8 0.00 0.00 0.00 92 1011.7
20260506225407 5 347 3.2 4.8 0.00 0.00 0.00 92 1011.7
20260506224407 5 347 1.6 3.2 0.00 0.00 0.00 92 1011.7
20260506223406 6 347 3.2 6.4 0.00 0.00 0.00 92 1011.7
20260506222407 6 331 3.2 6.4 0.00 0.00 0.00 92 1011.7
20260506220407 6 339 3.2 4.8 0.00 0.00 0.00 90 1011.6
20260506215407 6 338 3.2 6.4 0.00 0.00 0.00 90 1011.6
20260506214410 6 351 3.2 6.4 0.00 0.00 0.00 90 1011.5
20260506213410 6 340 3.2 6.4 0.00 0.00 0.00 89 1011.5
20260506212407 7 333 4.8 8.0 0.00 0.00 0.00 89 1011.4
20260506211411 7 336 4.8 8.0 0.00 0.00 0.00 88 1011.3
20260506210407 7 339 3.2 8.0 0.00 0.00 0.00 88 1011.3
20260506205407 7 333 3.2 8.0 0.00 0.00 0.00 88 1011.3
20260506204407 7 325 4.8 8.0 0.00 0.00 0.00 87 1011.3
20260506202407 8 9 4.8 9.7 0.00 0.00 0.00 85 1011.1
20260506201407 8 338 4.8 9.7 0.00 0.00 0.00 85 1011.1
20260506195408 8 5 6.4 12.9 0.00 0.00 0.00 83 1011.0
20260506194407 8 351 8.0 14.5 0.00 0.00 0.00 82 1010.9
20260506193408 9 343 8.0 14.5 0.00 0.00 0.00 82 1010.8
20260506192408 9 347 8.0 16.1 0.00 0.00 0.00 81 1010.7
20260506191408 9 355 8.0 14.5 0.00 0.00 0.00 80 1010.6
20260506185411 10 336 8.0 14.5 0.00 0.00 0.00 78 1010.3
20260506184408 11 360 11.3 16.1 0.00 0.00 0.00 77 1010.3
20260506183408 11 333 6.4 14.5 0.00 0.00 0.00 77 1010.1
20260506182408 11 24 4.8 11.3 0.00 0.00 0.00 76 1010.0
20260506181408 11 86 1.6 4.8 0.00 0.00 0.00 76 1010.0
20260506180408 11 84 1.6 4.8 0.00 0.00 0.00 74 1009.9
20260506174409 11 178 4.8 6.4 0.00 0.00 0.00 73 1009.7
20260506173408 11 127 3.2 8.0 0.00 0.00 0.00 73 1009.6
20260506172408 11 116 6.4 11.3 0.00 0.00 0.00 73 1009.6
20260506171409 11 109 3.2 9.7 0.00 0.00 0.00 72 1009.6
20260506170409 11 119 4.8 11.3 0.00 0.00 0.00 72 1009.5
20260506165409 11 86 4.8 11.3 0.00 0.00 0.00 71 1009.4